| time (UTC) | temp F | wind direction | speed knots | gust knots | rain 1hr in | rain 24hr in | rain mn in | humidity % | barometer mb |
| 20260504011601 | 59 | 185 | 0.0 | 1.7 | 0.00 | 0.00 | 0.00 | 60 | 1017.2 |
| 20260504010120 | 60 | 0 | 0.0 | 3.5 | 0.00 | 0.00 | 0.00 | 59 | 1017.0 |
| 20260504004601 | 60 | 0 | 0.0 | 1.7 | 0.00 | 0.00 | 0.00 | 56 | 1017.0 |
| 20260504003100 | 61 | 0 | 0.0 | 1.7 | 0.00 | 0.00 | 0.00 | 53 | 1016.8 |
| 20260504001612 | 62 | 169 | 0.0 | 1.7 | 0.00 | 0.00 | 0.00 | 50 | 1016.6 |
| 20260504000111 | 64 | 196 | 0.0 | 2.6 | 0.00 | 0.00 | 0.00 | 46 | 1016.5 |
| 20260503234559 | 65 | 0 | 0.0 | 2.6 | 0.00 | 0.00 | 0.00 | 46 | 1016.6 |
| 20260503233058 | 66 | 205 | 0.0 | 3.5 | 0.00 | 0.00 | 0.00 | 44 | 1016.5 |
| 20260503231601 | 67 | 155 | 0.0 | 3.5 | 0.00 | 0.00 | 0.00 | 42 | 1016.6 |
| 20260503230100 | 67 | 0 | 1.7 | 5.2 | 0.00 | 0.00 | 0.00 | 43 | 1016.7 |
| 20260503224558 | 67 | 0 | 0.0 | 5.2 | 0.00 | 0.00 | 0.00 | 42 | 1016.7 |
| 20260503223103 | 67 | 153 | 0.9 | 3.5 | 0.00 | 0.00 | 0.00 | 41 | 1016.8 |
| 20260503221609 | 68 | 0 | 0.0 | 4.3 | 0.00 | 0.00 | 0.00 | 41 | 1016.8 |
| 20260503220105 | 68 | 0 | 0.9 | 5.2 | 0.00 | 0.00 | 0.00 | 40 | 1016.8 |
| 20260503214601 | 68 | 230 | 0.9 | 5.2 | 0.00 | 0.00 | 0.00 | 41 | 1017.0 |
| 20260503213133 | 69 | 162 | 0.9 | 7.0 | 0.00 | 0.00 | 0.00 | 41 | 1017.0 |
| 20260503211622 | 69 | 225 | 0.9 | 3.5 | 0.00 | 0.00 | 0.00 | 39 | 1017.0 |
| 20260503204622 | 69 | 152 | 0.9 | 4.3 | 0.00 | 0.00 | 0.00 | 43 | 1017.1 |
| 20260503203116 | 70 | 0 | 0.0 | 2.6 | 0.00 | 0.00 | 0.00 | 40 | 1017.2 |
| 20260503201602 | 68 | 92 | 1.7 | 6.1 | 0.00 | 0.00 | 0.00 | 43 | 1017.6 |
| 20260503194607 | 70 | 0 | 0.0 | 2.6 | 0.00 | 0.00 | 0.00 | 44 | 1018.3 |
| 20260503193059 | 70 | 192 | 0.9 | 4.3 | 0.00 | 0.00 | 0.00 | 45 | 1018.4 |
| 20260503191607 | 70 | 280 | 0.0 | 3.5 | 0.00 | 0.00 | 0.00 | 44 | 1018.6 |
| 20260503190100 | 68 | 196 | 0.9 | 4.3 | 0.00 | 0.00 | 0.00 | 42 | 1018.9 |
| 20260503184637 | 68 | 207 | 0.9 | 6.1 | 0.00 | 0.00 | 0.00 | 43 | 1019.0 |
| 20260503183108 | 69 | 228 | 0.9 | 6.1 | 0.00 | 0.00 | 0.00 | 42 | 1019.2 |
| 20260503181559 | 66 | 344 | 0.9 | 7.0 | 0.00 | 0.00 | 0.00 | 43 | 1019.3 |
| 20260503180100 | 67 | 342 | 0.9 | 4.3 | 0.00 | 0.00 | 0.00 | 40 | 1019.3 |
| 20260503174613 | 68 | 247 | 0.9 | 3.5 | 0.00 | 0.00 | 0.00 | 44 | 1019.5 |
| 20260503173130 | 67 | 130 | 0.9 | 4.3 | 0.00 | 0.00 | 0.00 | 48 | 1019.7 |
| 20260503171558 | 68 | 273 | 0.9 | 4.3 | 0.00 | 0.00 | 0.00 | 49 | 1020.0 |
| 20260503130106 | 54 | 68 | 0.9 | 2.6 | 0.00 | 0.00 | 0.00 | 63 | 1020.9 |
| 20260503100109 | 48 | 313 | 0.0 | 2.6 | 0.00 | 0.00 | 0.00 | 66 | 1018.7 |
| 20260503090107 | 47 | 0 | 0.0 | 0.9 | 0.00 | 0.00 | 0.00 | 67 | 1018.4 |
| 20260503081601 | 49 | 340 | 0.0 | 1.7 | 0.00 | 0.01 | 0.00 | 64 | 1018.0 |
| 20260503071614 | 51 | 0 | 0.0 | 3.5 | 0.00 | 0.01 | 0.00 | 61 | 1017.3 |
| 20260503070114 | 51 | 309 | 1.7 | 7.0 | 0.00 | 0.01 | 0.00 | 61 | 1017.2 |
| 20260503060124 | 50 | 0 | 0.9 | 3.5 | 0.00 | 0.01 | 0.00 | 62 | 1017.1 |
| 20260503054600 | 50 | 328 | 0.0 | 2.6 | 0.00 | 0.01 | 0.00 | 63 | 1017.2 |
| 20260503053100 | 49 | 323 | 0.0 | 1.7 | 0.00 | 0.01 | 0.00 | 64 | 1017.1 |
| 20260503051557 | 49 | 0 | 0.0 | 1.7 | 0.00 | 0.01 | 0.00 | 61 | 1017.1 |
| 20260503044558 | 51 | 0 | 0.0 | 1.7 | 0.00 | 0.01 | 0.00 | 59 | 1017.1 |
| 20260503043102 | 49 | 0 | 0.0 | 0.0 | 0.00 | 0.01 | 0.00 | 65 | 1017.1 |
| 20260503041558 | 51 | 0 | 0.0 | 0.9 | 0.00 | 0.01 | 0.00 | 59 | 1017.0 |
| 20260503040057 | 51 | 0 | 0.0 | 0.9 | 0.00 | 0.01 | 0.00 | 57 | 1016.9 |
| 20260503034601 | 51 | 275 | 0.0 | 2.6 | 0.00 | 0.01 | 0.01 | 59 | 1016.7 |
| 20260503033102 | 51 | 0 | 0.0 | 0.0 | 0.00 | 0.01 | 0.01 | 58 | 1016.6 |
| 20260503031600 | 52 | 0 | 0.0 | 0.9 | 0.00 | 0.01 | 0.01 | 55 | 1016.5 |
| 20260503030110 | 53 | 15 | 0.0 | 0.9 | 0.00 | 0.01 | 0.01 | 52 | 1016.3 |
| 20260503024625 | 54 | 0 | 0.0 | 0.9 | 0.00 | 0.01 | 0.01 | 50 | 1016.3 |
| 20260503023109 | 55 | 17 | 0.0 | 1.7 | 0.00 | 0.01 | 0.01 | 48 | 1016.2 |
| 20260503021605 | 56 | 355 | 0.0 | 3.5 | 0.00 | 0.01 | 0.01 | 47 | 1015.9 |
| 20260503014628 | 57 | 74 | 0.9 | 5.2 | 0.00 | 0.01 | 0.01 | 44 | 1015.6 |
| 20260503013100 | 58 | 327 | 0.9 | 5.2 | 0.00 | 0.01 | 0.01 | 44 | 1015.0 |